TimeEDT,TemperatureF,Dew PointF,Humidity,Sea Level PressureIn,VisibilityMPH,Wind Direction,Wind SpeedMPH,Gust SpeedMPH,PrecipitationIn,Events,Conditions,WindDirDegrees,DateUTC
12:14 AM,70.2,66.6,88,29.81,10.0,South,9.2,-,N/A,,Mostly Cloudy,180,2013-10-06 04:14:00
12:34 AM,70.0,65.8,87,29.80,10.0,South,8.1,-,N/A,,Overcast,170,2013-10-06 04:34:00
12:54 AM,70.2,65.7,86,29.81,10.0,SSW,6.9,-,N/A,,Overcast,200,2013-10-06 04:54:00
1:14 AM,69.8,65.8,87,29.80,10.0,SSW,11.5,-,N/A,,Overcast,210,2013-10-06 05:14:00
1:34 AM,69.8,65.7,87,29.80,10.0,SSW,12.7,-,N/A,,Overcast,210,2013-10-06 05:34:00
1:54 AM,69.1,65.1,87,29.80,10.0,SW,10.4,17.3,N/A,,Overcast,220,2013-10-06 05:54:00
2:14 AM,68.9,64.9,87,29.80,10.0,SW,10.4,-,N/A,,Overcast,220,2013-10-06 06:14:00
2:34 AM,68.2,64.8,89,29.80,10.0,SSW,6.9,-,N/A,,Overcast,200,2013-10-06 06:34:00
2:54 AM,67.6,64.8,90,29.78,10.0,Calm,Calm,-,N/A,,Mostly Cloudy,0,2013-10-06 06:54:00
3:14 AM,67.3,64.9,92,29.78,10.0,South,5.8,-,N/A,,Overcast,180,2013-10-06 07:14:00
3:34 AM,67.6,65.3,92,29.78,10.0,SSW,3.5,-,N/A,,Overcast,200,2013-10-06 07:34:00
3:54 AM,68.0,65.3,91,29.78,10.0,South,5.8,-,N/A,,Overcast,190,2013-10-06 07:54:00
4:14 AM,68.0,65.5,92,29.78,10.0,SSW,6.9,-,N/A,,Overcast,200,2013-10-06 08:14:00
4:34 AM,68.4,65.7,91,29.77,10.0,SSW,8.1,-,N/A,,Overcast,200,2013-10-06 08:34:00
4:54 AM,68.4,65.8,92,29.76,10.0,South,5.8,-,N/A,,Overcast,190,2013-10-06 08:54:00
5:14 AM,68.4,66.0,92,29.76,10.0,South,4.6,-,N/A,,Overcast,190,2013-10-06 09:14:00
5:34 AM,68.4,66.2,93,29.76,10.0,SSW,4.6,-,N/A,,Overcast,200,2013-10-06 09:34:00
5:54 AM,68.5,66.2,92,29.77,10.0,South,8.1,-,N/A,,Overcast,190,2013-10-06 09:54:00
6:14 AM,68.9,66.2,91,29.76,10.0,South,6.9,-,N/A,,Overcast,190,2013-10-06 10:14:00
6:34 AM,68.5,65.8,91,29.75,10.0,South,5.8,-,N/A,,Overcast,180,2013-10-06 10:34:00
6:54 AM,68.2,65.5,91,29.75,10.0,South,11.5,-,N/A,,Overcast,180,2013-10-06 10:54:00
7:14 AM,68.0,64.9,90,29.76,10.0,South,12.7,-,N/A,,Overcast,190,2013-10-06 11:14:00
7:34 AM,68.0,64.6,89,29.75,10.0,SSW,9.2,-,N/A,,Overcast,200,2013-10-06 11:34:00
7:54 AM,68.0,64.6,89,29.75,10.0,SSW,8.1,-,N/A,,Overcast,200,2013-10-06 11:54:00
8:14 AM,68.0,64.4,88,29.73,10.0,South,4.6,-,N/A,,Overcast,180,2013-10-06 12:14:00
8:34 AM,68.0,64.4,88,29.74,10.0,South,6.9,-,N/A,,Overcast,180,2013-10-06 12:34:00
8:54 AM,68.0,64.4,88,29.73,10.0,South,6.9,-,N/A,,Overcast,170,2013-10-06 12:54:00
9:14 AM,68.0,64.6,89,29.72,10.0,South,9.2,-,N/A,,Overcast,180,2013-10-06 13:14:00
9:34 AM,67.5,65.1,92,29.72,7.0,South,5.8,-,N/A,,Light Drizzle,180,2013-10-06 13:34:00
9:54 AM,68.2,65.3,90,29.71,10.0,South,8.1,-,N/A,,Overcast,170,2013-10-06 13:54:00
10:14 AM,68.5,64.9,88,29.70,10.0,South,6.9,-,N/A,,Overcast,170,2013-10-06 14:14:00
10:34 AM,68.9,64.4,86,29.70,10.0,South,10.4,-,N/A,,Overcast,180,2013-10-06 14:34:00
10:54 AM,66.7,62.4,86,29.71,10.0,West,16.1,20.7,N/A,,Overcast,260,2013-10-06 14:54:00
11:14 AM,63.7,61.2,91,29.71,10.0,West,11.5,-,N/A,Rain,Light Rain,260,2013-10-06 15:14:00
11:34 AM,62.8,60.8,93,29.71,3.0,West,16.1,19.6,N/A,Rain,Heavy Rain,280,2013-10-06 15:34:00
11:54 AM,60.1,58.6,95,29.72,2.5,West,9.2,19.6,N/A,,Heavy Drizzle,270,2013-10-06 15:54:00
12:14 PM,59.5,57.9,94,29.73,2.5,West,10.4,17.3,N/A,,Light Drizzle,270,2013-10-06 16:14:00
12:34 PM,59.4,58.1,96,29.73,3.0,West,8.1,-,N/A,,Drizzle,270,2013-10-06 16:34:00
12:54 PM,59.0,57.7,96,29.73,1.8,West,11.5,-,N/A,,Heavy Drizzle,270,2013-10-06 16:54:00
1:14 PM,57.4,55.8,94,29.73,4.0,West,13.8,18.4,0.01,Rain,Rain,280,2013-10-06 17:14:00
1:34 PM,57.7,55.9,94,29.73,7.0,West,11.5,-,0.02,Rain,Light Rain,270,2013-10-06 17:34:00
1:54 PM,57.0,55.0,93,29.72,7.0,West,10.4,-,0.02,Rain,Light Rain,270,2013-10-06 17:54:00
2:14 PM,57.2,55.6,94,29.71,10.0,West,8.1,-,0.01,Rain,Light Rain,270,2013-10-06 18:14:00
2:34 PM,57.4,55.4,93,29.70,7.0,West,11.5,16.1,0.02,Rain,Light Rain,270,2013-10-06 18:34:00
2:54 PM,57.4,55.6,94,29.70,7.0,West,11.5,-,0.02,,Drizzle,280,2013-10-06 18:54:00
3:14 PM,56.5,54.7,94,29.71,4.0,West,9.2,-,N/A,,Drizzle,270,2013-10-06 19:14:00
3:34 PM,56.3,53.4,90,29.70,7.0,West,9.2,-,N/A,,Light Drizzle,270,2013-10-06 19:34:00
3:54 PM,56.8,52.9,87,29.68,10.0,West,6.9,-,N/A,,Overcast,260,2013-10-06 19:54:00
4:14 PM,56.1,52.0,86,29.70,10.0,WSW,9.2,-,N/A,,Overcast,240,2013-10-06 20:14:00
4:34 PM,55.2,52.3,90,29.69,5.0,WSW,6.9,-,0.04,Rain,Rain,240,2013-10-06 20:34:00
4:54 PM,55.4,53.4,93,29.68,10.0,WSW,5.8,-,0.04,,Overcast,250,2013-10-06 20:54:00
5:14 PM,55.8,52.7,89,29.69,10.0,WSW,4.6,-,N/A,,Overcast,240,2013-10-06 21:14:00
5:34 PM,55.8,52.9,90,29.68,10.0,WSW,5.8,-,N/A,,Overcast,250,2013-10-06 21:34:00
5:54 PM,56.3,53.2,89,29.69,10.0,WSW,5.8,-,N/A,,Overcast,240,2013-10-06 21:54:00
6:14 PM,56.3,53.4,90,29.70,10.0,West,6.9,-,N/A,,Mostly Cloudy,270,2013-10-06 22:14:00
6:34 PM,57.0,54.1,90,29.69,10.0,West,4.6,-,N/A,,Scattered Clouds,260,2013-10-06 22:34:00
6:54 PM,57.2,53.8,88,29.70,10.0,West,8.1,-,N/A,,Mostly Cloudy,260,2013-10-06 22:54:00
7:14 PM,56.8,53.6,89,29.70,10.0,WSW,6.9,-,N/A,,Mostly Cloudy,250,2013-10-06 23:14:00
7:34 PM,56.3,53.2,89,29.72,10.0,SSW,5.8,-,N/A,,Scattered Clouds,210,2013-10-06 23:34:00
7:54 PM,55.4,52.7,91,29.71,10.0,SW,5.8,-,N/A,,Scattered Clouds,230,2013-10-06 23:54:00
8:14 PM,54.7,52.3,92,29.70,10.0,Calm,Calm,-,N/A,,Clear,0,2013-10-07 00:14:00
8:34 PM,54.5,52.3,92,29.70,10.0,Calm,Calm,-,N/A,,Clear,0,2013-10-07 00:34:00
8:54 PM,53.6,52.0,94,29.71,10.0,SSW,5.8,-,N/A,,Clear,210,2013-10-07 00:54:00
9:14 PM,54.1,52.7,95,29.71,10.0,SSW,5.8,-,N/A,,Clear,210,2013-10-07 01:14:00
9:34 PM,53.2,51.8,95,29.70,10.0,SSW,5.8,-,N/A,,Clear,210,2013-10-07 01:34:00
9:54 PM,53.6,52.0,94,29.71,10.0,SSW,5.8,-,N/A,,Clear,210,2013-10-07 01:54:00
10:14 PM,52.9,51.6,95,29.70,10.0,SW,5.8,-,N/A,,Clear,220,2013-10-07 02:14:00
10:34 PM,52.5,51.1,95,29.70,10.0,SW,5.8,-,N/A,,Clear,230,2013-10-07 02:34:00
10:54 PM,52.5,51.3,95,29.71,10.0,South,6.9,-,N/A,,Clear,190,2013-10-07 02:54:00
11:14 PM,52.0,50.5,95,29.70,10.0,SSW,5.8,-,N/A,,Scattered Clouds,210,2013-10-07 03:14:00
11:34 PM,52.0,50.2,94,29.70,10.0,SSW,4.6,-,N/A,,Scattered Clouds,200,2013-10-07 03:34:00
11:54 PM,51.4,50.0,95,29.70,10.0,SSW,4.6,-,N/A,,Mostly Cloudy,200,2013-10-07 03:54:00